Calgary Springbank,

9:00 AM MST on December 14, 2017 (GMT -0700)
Calgary Springbank

Weather History for CYBW - March, 2014

Change the Weather History Date:

Friday, March 14, 2014

  Actual Average Record
Temperature  
Mean Temperature 36 °F -  
Max Temperature 46 °F 40 °F 60 °F (1999)
Min Temperature 26 °F 18 °F -18 °F (1997)
Degree Days  
Heating Degree Days 29    
Moisture  
Dew Point 22 °F    
Average Humidity 53    
Maximum Humidity 80    
Minimum Humidity 38    
Precipitation  
Precipitation 0.00 in - - ()
Sea Level Pressure  
Sea Level Pressure 29.79 in    
Wind  
Wind Speed 6 mph ()    
Max Wind Speed 14 mph    
Max Gust Speed -    
Visibility 15.0 miles    
Events      
Averages and records for this station are not official NWS values.
T = Trace of Precipitation, MM = Missing Value Source: Averaged Metar Reports

Daily Weather History Graph

Daily Weather History Graph

Search for Another Location

Airport or City:

Trip Planner

Search our weather history database for the weather conditions in past years. The results will help you decide how hot, cold, wet, or windy it might be!

Date:

Astronomy

Mar. 14, 2014 Rise Set
Actual Time 7:53 AM MDT 7:40 PM MDT
Civil Twilight 7:20 AM MDT 8:13 PM MDT
Nautical Twilight 6:41 AM MDT 8:52 PM MDT
Astronomical Twilight 6:02 AM MDT 9:32 PM MDT
Moon 5:59 PM MDT 6:45 AM MDT
Length of Visible Light 12h 53m
Length of Day
11h 47m
Waxing Gibbous, 96% of the Moon is Illuminated
Mar 14
Waxing Gibbous
Mar 16
Full
Mar 23
Last Quarter
Mar 30
New
Apr 7
First Quarter

Hourly Weather History & Observations

Time (MDT) Temp. Windchill Dew Point Humidity Pressure Visibility Wind Dir Wind Speed Gust Speed Precip Events Conditions
5:00 AM 26.6 °F - 21.2 °F 80% 29.85 in 15.0 mi ESE 2.3 mph - N/A   Mostly Cloudy
6:00 AM 35.6 °F 26.6 °F 19.4 °F 52% 29.82 in 15.0 mi West 13.8 mph - N/A   Mostly Cloudy
7:00 AM 33.8 °F 25.8 °F 17.6 °F 52% 29.81 in 15.0 mi WNW 10.4 mph - N/A   Overcast
8:00 AM 37.4 °F - 14.0 °F 38% 29.81 in 30.0 mi Calm Calm - N/A   Mostly Cloudy
8:01 AM 35.6 °F - 14.0 °F 41% 29.69 in 30.0 mi Calm Calm - N/A   Mostly Cloudy
9:00 AM 39.2 °F 31.2 °F 21.2 °F 49% 29.79 in 30.0 mi West 13.8 mph - N/A   Mostly Cloudy
10:00 AM 39.2 °F 34.2 °F 21.2 °F 49% 29.77 in 30.0 mi West 6.9 mph - N/A   Mostly Cloudy
11:00 AM 42.8 °F 38.0 °F 21.2 °F 42% 29.76 in 30.0 mi WSW 8.1 mph - N/A   Mostly Cloudy
12:00 PM 44.6 °F 40.2 °F 21.2 °F 39% 29.74 in 30.0 mi SSW 8.1 mph - N/A   Mostly Cloudy
1:00 PM 42.8 °F 38.6 °F 21.2 °F 42% 29.74 in 30.0 mi South 6.9 mph - N/A   Overcast
2:00 PM 44.6 °F 41.4 °F 21.2 °F 39% 29.74 in 40.0 mi SW 5.8 mph - N/A   Mostly Cloudy
3:00 PM 46.4 °F 41.5 °F 24.8 °F 43% 29.75 in 30.0 mi WNW 10.4 mph - N/A   Overcast
4:00 PM 46.4 °F 41.9 °F 24.8 °F 43% 29.75 in 30.0 mi ENE 9.2 mph - N/A   Mostly Cloudy
5:00 PM 42.8 °F 37.5 °F 26.6 °F 53% 29.77 in 30.0 mi ENE 9.2 mph - N/A   Overcast
6:00 PM 41.0 °F 36.4 °F 26.6 °F 57% 29.78 in 30.0 mi East 6.9 mph - N/A   Overcast
7:00 PM 41.0 °F 38.0 °F 26.6 °F 57% 29.81 in 30.0 mi ENE 4.6 mph - N/A   Mostly Cloudy
8:00 PM 35.6 °F 32.8 °F 26.6 °F 70% 29.84 in 30.0 mi ESE 3.5 mph - N/A   Overcast
9:00 PM 32.0 °F 28.7 °F 26.6 °F 80% 29.88 in 15.0 mi SW 3.5 mph - N/A   Mostly Cloudy
10:00 PM 33.8 °F 30.8 °F 26.6 °F 75% 29.92 in 15.0 mi NNE 3.5 mph - N/A   Overcast